EHI
0 1 2 2 1 0 0 0 0 0 0 0 0 0 0 0 0 0 0 0 0 0 0 0 0 0 0 0 0 0 0 0 0 0 0 0 0 0
0 0 1 1 0 0 0 0 0 0 0 0 0 0 0 0 0 0 0 0 0 0 0 0 0 0 0 0 0 0 0 0 0 0 0 0 0 0
0 0 0 0 0 0 0 0 0 0 0 0 0 0 0 0 0 0 0 0 0 0 0 0 0 0 0 0 0 0 0 0 0 0 0 0 0 0
0 0 0 0 0 0 0 0 0 0 0 0 0 0 0 0 0 0 0 0 0 0 0 0 0 0 0 0 0 0 0 0 0 0 0 0 0 0
0 0 0 0 0 0 0 0 0 0 0 0 0 0 0 0 0 0 0 0 0 0 0 0 0 0 0 0 0 0 0 0 0 0 0 0 0 0
0 0 0 0 0 0 0 0 0 0 0 0 0 0 0 0 0 0 0 0 0 0 0 0 0 0 0 0 0 0 0 0 0 0 0 0 0 0
0 0 0 0 0 0 0 0 0 0 0 0 0 0 0 0 0 0 0 0 0 0 0 0 0 0 0 0 0 0 0 0 0 0 0 0 0 0
0 0 0 0 0 0 0 0 0 0 0 0 0 0 0 0 0 0 0 0 0 0 0 0 0 0 0 0 0 0 0 0 0 0 0 0 0 0
0 0 0 0 0 0 0 0 0 0 0 0 0 0 0 0 0 0 0 0 0 0 0 0 0 0 0 0 0 0 0 0 0 0 0 0 0 0
0 0 0 0 0 0 0 0 0 0 0 0 0 0 0 0 0 0 0 0 0 0 0 0 0 0 0 0 0 0 0 0 0 0 0 0 0 0
0 0 0 0 0 0 0 0 0 0 0 0 0 0 0 0 0 0 0 0 0 0 0 0 0 0 0 0 0 0 0 0 0 0 0 0 0 0
0 0 0 0 0 0 0 0 0 0 0 0 0 0 0 0 0 0 0 0 0 0 0 0 0 0 0 0 0 0 0 0 0 0 0 0 0 0
0 0 0 0 0 0 0 0 0 0 0 0 0 0 0 0 0 0 0 0 0 0 0 0 0 0 0 0 0 0 0 0 0 0 0 0 0 0
0 0 0 0 0 0 0 0 0 0 0 0 0 0 0 0 0 0 0 0 0 0 0 0 0 0 0 0 0 0 0 0 0 0 0 0 0 0
0 0 0 0 0 0 0 0 0 0 0 0 0 0 0 0 0 0 0 0 0 0 0 0 0 0 0 0 0 0 0 0 0 0 0 0 0 0
0 0 0 0 0 0 0 0 0 0 0 0 0 0 0 0 0 0 0 0 0 0 0 0 0 0 0 0 0 0 0 0 0 0 0 0 0 0
0 0 0 0 0 0 0 0 0 0 0 0 0 0 0 0 0 0 0 0 0 0 0 0 0 0 0 0 0 0 0 0 0 0 0 0 0 0
0 0 0 0 0 0 0 0 0 0 0 0 0 0 0 0 0 0 0 0 0 0 0 0 0 0 0 0 0 0 0 0 0 0 0 0 0 0
0 0 0 0 0 0 0 0 0 0 0 0 0 0 0 0 0 0 0 0 0 0 0 0 0 0 0 0 0 0 0 0 0 0 0 0 0 0
0 0 0 0 0 0 0 0 0 0 0 0 0 0 0 0 0 0 0 0 0 0 0 0 0 0 0 0 0 0 0 0 0 0 0 0 0 0
0 0 0 0 0 0 0 0 0 0 0 0 0 0 0 0 0 0 0 0 0 0 0 0 0 0 0 0 0 0 0 0 0 0 0 0 0 0
0 0 0 0 0 0 0 0 0 0 0 0 0 0 0 0 0 0 0 0 0 0 0 0 0 0 0 0 0 0 0 0 0 0 0 0 0 0
0 0 0 0 0 0 0 0 0 0 0 0 0 0 0 0 0 0 0 0 0 0 0 0 0 0 0 0 0 0 0 0 0 0 0 0 0 0
Wind_Speed
6 6 5 4 3 3 3 3 4 3 1 0 1 2 2 2 3 2 1 2 3 4 5 6 6 6 6 6 6 6 6 7 9 10 12 14 16 18
3 5 4 3 3 3 3 3 3 4 3 0 1 2 3 4 5 3 3 5 4 3 3 4 5 5 6 6 7 7 7 9 10 11 12 13 14 16
4 6 6 5 4 3 3 3 3 4 5 2 2 3 4 5 4 4 4 4 3 5 3 2 3 5 6 6 7 7 8 9 10 11 13 14 15 17
5 7 7 6 6 5 4 5 4 4 5 5 3 4 5 4 4 5 5 5 3 5 6 4 3 4 5 6 7 8 8 9 10 11 13 14 16 17
7 8 7 8 7 5 6 5 4 5 5 6 4 3 3 4 4 4 5 4 4 5 5 5 4 4 5 6 7 8 9 9 10 11 12 14 15 16
9 9 8 8 8 7 7 6 7 8 7 6 5 3 3 3 3 4 4 4 3 4 5 5 5 5 6 6 6 7 8 9 10 11 12 13 14 15
10 9 9 11 10 8 7 6 8 7 6 6 4 4 3 4 3 2 3 3 3 3 4 4 3 3 4 5 6 7 8 9 10 11 12 13 13 14
9 7 9 10 12 12 12 11 9 8 6 5 3 3 2 2 2 2 2 3 4 4 3 4 3 3 3 3 5 7 7 8 9 11 11 12 13 13
6 6 7 8 8 8 11 13 11 10 8 5 4 2 1 0 1 3 2 1 2 4 2 3 3 4 4 4 6 6 7 8 9 10 11 11 11 11
6 7 7 6 6 7 8 8 7 6 6 4 3 1 1 1 1 1 1 2 3 3 2 2 4 4 5 4 6 7 8 9 10 10 11 11 10 9
6 6 7 7 9 11 9 8 7 5 7 9 7 7 7 5 3 3 3 3 3 3 2 2 4 4 4 4 4 7 8 9 10 10 10 10 9 7
5 5 8 8 10 10 7 7 6 4 4 6 7 7 6 6 7 3 2 2 1 3 3 3 3 3 5 4 3 4 5 7 9 9 9 9 8 4
4 3 3 9 10 10 8 5 4 3 4 5 4 4 4 4 4 3 2 2 1 1 3 3 2 3 3 4 4 4 4 4 4 5 6 7 7 4
5 3 3 7 9 8 6 7 8 7 5 5 4 4 3 3 3 3 4 3 1 1 3 2 1 2 3 3 4 5 4 4 4 5 5 5 4 5
4 7 7 7 6 5 7 8 7 5 4 4 3 2 1 2 2 3 5 5 5 4 5 3 2 2 2 2 4 4 4 4 5 6 5 4 3 2
5 6 6 5 4 3 4 4 3 3 4 3 2 1 2 3 3 3 3 3 4 5 6 6 5 3 2 3 3 4 4 5 5 6 5 4 3 2
6 3 2 2 2 2 2 2 3 3 3 2 2 2 3 3 3 2 2 3 3 4 5 5 5 2 1 2 3 4 5 4 5 5 5 4 4 4
7 3 2 2 3 2 2 2 2 2 2 3 2 2 2 2 2 2 2 3 3 3 4 4 5 5 4 3 2 4 4 4 5 5 4 3 4 5
4 3 3 3 3 4 4 4 3 3 3 3 3 2 1 2 2 2 3 3 3 3 3 3 3 3 4 4 5 4 4 4 5 4 4 3 3 4
3 4 4 4 4 4 5 4 4 3 3 3 2 2 2 2 2 1 2 2 2 3 4 4 3 2 1 2 3 4 5 4 4 5 4 3 2 3
4 4 4 4 4 5 5 5 5 4 4 3 3 3 2 2 2 1 1 3 3 3 3 4 5 6 2 2 3 5 5 5 4 3 4 4 4 4
5 5 5 5 5 5 6 5 5 5 5 4 3 3 3 3 3 3 2 2 1 1 2 4 5 5 4 4 3 4 5 6 6 6 6 5 2 3
6 6 5 5 5 5 6 6 7 6 5 5 5 4 4 3 3 3 3 2 1 2 3 4 5 4 3 3 3 3 5 6 5 5 5 9 8 5
Wind_Direction
205 196 185 173 166 165 161 158 157 154 127 5 73 41 80 97 94 88 14 317 300 270 254 244 236 234 235 240 247 255 262 266 267 267 267 265 258 252
173 155 149 144 142 148 156 160 159 142 135 134 77 57 50 71 59 47 16 5 355 327 287 257 244 238 237 243 249 254 260 264 267 268 268 267 265 259
141 138 133 130 127 127 120 116 110 117 120 80 46 46 58 52 32 32 29 28 9 15 359 302 260 250 248 252 256 259 265 270 272 273 273 271 267 262
125 124 122 117 107 104 102 98 98 106 118 108 61 45 49 47 39 35 23 23 5 16 10 355 316 280 265 261 262 266 271 275 278 279 279 277 273 267
109 111 110 108 101 100 98 94 90 90 96 104 87 53 44 34 33 20 14 3 3 11 8 354 332 313 290 274 270 272 275 279 282 282 282 281 277 270
82 86 90 95 98 95 89 88 92 91 89 92 84 54 38 15 35 15 0 349 351 1 354 343 339 329 314 299 283 280 282 285 287 288 286 283 279 273
73 74 79 84 84 85 94 94 94 94 90 87 79 60 36 29 17 353 359 334 333 354 341 335 338 334 319 306 298 296 295 298 297 294 291 288 282 275
80 76 76 73 77 79 86 91 98 104 103 95 85 78 49 27 4 11 9 12 342 332 345 319 333 326 313 302 304 307 308 306 305 302 297 293 288 281
90 83 82 72 71 78 77 75 73 82 102 115 106 104 101 29 41 23 16 5 289 297 338 311 318 315 308 312 315 313 315 315 313 311 307 302 297 289
89 91 90 75 76 88 86 76 67 61 68 80 105 127 146 155 143 164 251 312 304 314 13 323 308 304 306 312 319 321 322 321 320 319 316 311 304 296
83 87 95 87 88 92 89 82 64 39 51 69 81 81 84 88 94 62 30 30 349 316 345 341 304 308 308 310 319 327 327 325 322 320 321 321 314 303
80 76 87 97 93 91 92 90 76 40 42 56 52 45 48 48 54 70 89 62 1 322 317 338 312 330 322 307 314 325 327 323 322 320 322 324 325 312
115 101 96 104 96 92 92 92 98 99 80 77 64 45 34 30 24 27 57 108 93 311 302 332 320 324 305 304 314 321 327 325 328 322 323 326 335 337
141 142 132 115 100 92 83 83 87 89 82 73 61 42 29 12 356 4 17 30 65 252 303 341 330 314 317 316 313 317 325 336 338 333 332 329 338 356
154 157 146 121 95 77 71 78 81 83 84 78 69 36 338 334 6 12 9 10 7 359 2 4 358 336 347 326 319 323 324 331 341 339 338 336 335 348
131 143 132 107 85 76 67 68 82 104 112 112 111 40 16 24 24 22 20 9 11 343 342 355 3 14 5 341 341 337 331 327 332 338 341 347 355 359
130 103 93 87 75 62 64 72 83 90 96 98 90 63 39 31 14 9 25 26 24 346 334 335 341 351 49 15 356 344 337 332 331 336 344 352 5 10
131 133 150 159 163 160 143 124 120 123 123 112 96 84 65 48 21 7 23 31 14 344 331 327 343 355 357 346 22 347 341 334 331 338 349 354 3 9
134 156 166 175 178 172 165 155 158 159 140 124 116 107 89 68 57 27 17 19 7 346 329 329 353 14 11 342 323 7 354 333 339 346 354 0 357 352
160 168 178 180 174 167 164 159 155 148 138 135 133 125 110 95 81 56 32 30 15 358 349 343 347 342 307 288 301 320 356 353 344 347 345 345 340 337
182 179 181 178 175 170 168 164 160 160 158 151 150 147 134 116 102 91 69 43 42 21 2 333 306 319 308 12 358 334 329 353 11 357 342 347 349 354
181 185 186 183 179 174 169 166 163 164 163 161 163 161 150 136 135 126 113 89 54 21 348 328 338 4 27 29 359 330 333 341 353 8 25 28 0 349
185 187 187 185 184 179 174 174 174 176 175 171 168 168 160 151 150 143 136 123 94 39 16 358 356 9 13 14 5 350 351 351 349 357 360 5 20 29